Location: Peebles
(55.6412°N, 3.1714°W)
Time: 09:59:59
(UTC+01:00)

Okean 1 Rocket - Pass Details

Date: 26 September 2021
Orbit: 606 x 635 km, 82.5° (Epoch: 20 October)

Event Time Altitude Azimuth Distance (km) Brightness Sun altitude
Exits shadow 21:56:16 54° 35° (NE) 747 3.4 -24.1°
Drops below altitude 10° 21:59:45 10° 15° (NNE) 1,975 5.9 -24.5°
Sets 22:01:59 0° 14° (NNE) 2,882 6.8 -24.7°
